Regional Weather Roundup
Issued by NWS Sioux Falls, SD

Home | Current Version | Previous Version | Text Only | Print | Product List | Glossary On
Versions: 1 2 3 4 5 6 7 8 9 10 11 12 13 14 15 16 17 18 19 20 21 22 23 24 25 26 27 28 29 30 31 32 33 34 35 36 37 38 39 40 41 42 43 44 45 46 47 48 49 50
980
ASUS43 KFSD 201810
RWRFSD

WEATHER ROUNDUP FOR SE SOUTH DAKOTA/SW MINNESOTA/NW IOWA
NATIONAL WEATHER SERVICE SIOUX FALLS SD
1200 PM CST SAT JAN 20 2018

NOTE: "FAIR" INDICATES FEW OR NO CLOUDS BELOW 12,000 FEET WITH NO
SIGNIFICANT WEATHER AND OR OBSTRUCTIONS TO VISIBILITY.


SDZ038>040-050-052>070-201900-
SOUTHEAST SOUTH DAKOTA

CITY           SKY/WX    TMP DP  RH WIND       PRES   REMARKS
BROOKINGS      CLOUDY    40  32  73 CALM      29.90S
CHAMBERLAIN    PTSUNNY   37  35  94 CALM      29.91F
6HR MIN TEMP:  24; 6HR MAX TEMP:  37;

HURON          PTSUNNY   45  33  63 VRB5      29.90F
6HR MIN TEMP:  24; 6HR MAX TEMP:  45;

MADISON        FAIR      37  36  93 CALM      29.90S
MITCHELL       PTSUNNY   37  32  82 NW3       29.93F
6HR MIN TEMP:  22; 6HR MAX TEMP:  37;

SIOUX FALLS    CLOUDY    41  34  76 CALM      29.90F
6HR MIN TEMP:  22; 6HR MAX TEMP:  41;

WINNER         FAIR      38  33  82 NW7       29.92F
YANKTON        CLOUDY    36  31  82 NW10      29.91S
$$

MNZ071-072-080-081-089-090-097-098-201900-
SOUTHWEST MINNESOTA

CITY           SKY/WX    TMP DP  RH WIND       PRES   REMARKS
FAIRMONT       CLOUDY    39  31  72 CALM      29.89F
JACKSON        CLOUDY    39  32  75 CALM      29.88F
LUVERNE        CLOUDY    36  30  80 NW5       29.90S
MARSHALL       CLOUDY    43  28  55 CALM      29.90S
6HR MIN TEMP:  26; 6HR MAX TEMP:  44;

MONTEVIDEO     CLOUDY    43  34  70 W3        29.89F
PIPESTONE      MOSUNNY   37  30  75 W3        29.88F
REDWOOD FALLS  CLOUDY    40  31  70 NW5       29.90R
TRACY          CLOUDY    41  32  71 CALM      29.89S
WINDOM         CLOUDY    39  21  48 CALM      29.88F
WORTHINGTON    PTSUNNY   40  32  73 S3        29.89F
$$

IAZ001>003-012>014-020>022-031-032-NEZ013-014-SDZ071-201900-
NORTHWEST IOWA

CITY           SKY/WX    TMP DP  RH WIND       PRES   REMARKS
CHEROKEE       CLOUDY    48  34  58 N5        29.87F
DENISON        CLOUDY    45  34  65 SE5       29.87F
ESTHERVILLE    CLOUDY    39  33  79 CALM      29.89S
LE MARS        MOSUNNY   46  34  61 NE6       29.88F
ORANGE CITY    MOSUNNY   45  36  70 CALM      29.88F
SHELDON        CLOUDY    39  34  81 CALM      29.87F
SIOUX CITY     SUNNY     48  33  56 NW6       29.88F
6HR MIN TEMP:  22; 6HR MAX TEMP:  48;

SPENCER        CLOUDY    44  33  65 CALM      29.89F
6HR MIN TEMP:  22; 6HR MAX TEMP:  44;

STORM LAKE     SUNNY     45  32  61 NE6       29.86F
$$

ABBREVIATIONS USED IN REMARKS
   TC - TEMPERATURE IN CELSIUS
  WCI - WIND CHILL INDEX
   HX - HEAT INDEX
  VSB - VISIBILITY





USA.gov is the U.S. government's official web portal to all federal, state and local government web resources and services.